Flight Track Log - Related Links

Times and Time Zones

All times are in EDT time to prevent confusion due to time zone crossing. See the CTL15 flight status page for this flight to view local times or setup timezone preferences in your user account.

Time Position Orientation Groundspeed Altitude Reporting Facility
EDT Latitude Longitude Course Direction KTS MPH feet Rate Location/Type
Thu 07:45:16 PM 39.6147 -84.2011 46° Northeast 133 153 1,400  Level Indianapolis Center
Thu 07:46:36 PM 39.6547 -84.1469 46° Northeast 166 191 2,100 478 Climbing Indianapolis Center
Thu 07:47:09 PM 39.6722 -84.1214 48° Northeast 163 188 2,300 300 Climbing Indianapolis Center
Thu 07:47:36 PM 39.6875 -84.1022 44° Northeast 168 193 2,400 492 Climbing Indianapolis Center
Thu 07:48:10 PM 39.7031 -84.0767 52° Northeast 165 190 2,800 764 Climbing Indianapolis Center
Thu 07:48:31 PM 39.7036 -84.0556 88° East 155 178 3,100 581 Climbing Indianapolis Center
Thu 07:49:12 PM 39.7192 -84.0264 55° Northeast 156 180 3,400 492 Climbing Indianapolis Center
Thu 07:49:32 PM 39.7344 -84.0108 38° Northeast 164 189 3,600 492 Climbing Indianapolis Center
Thu 07:50:13 PM 39.7544 -83.9856 44° Northeast 162 186 3,900 492 Climbing Indianapolis Center
Thu 07:50:33 PM 39.7669 -83.9689 46° Northeast 165 190 4,100 387 Climbing Indianapolis Center
Thu 07:51:15 PM 39.7861 -83.9408 48° Northeast 164 189 4,300 350 Climbing Indianapolis Center
Thu 07:52:16 PM 39.8169 -83.8944 49° Northeast 166 191 4,700 391 Climbing Indianapolis Center
Thu 07:52:47 PM 39.8336 -83.8661 53° Northeast 167 192 4,900 387 Climbing Indianapolis Center
Thu 07:53:18 PM 39.8475 -83.8478 45° Northeast 167 192 5,100 300 Climbing Indianapolis Center
Thu 07:53:47 PM 39.8681 -83.8242 41° Northeast 168 193 5,200 197 Climbing Indianapolis Center
Thu 07:54:19 PM 39.8819 -83.8050 47° Northeast 168 193 5,300 327 Climbing Indianapolis Center
Thu 07:54:42 PM 39.8983 -83.7844 44° Northeast 170 196 5,500 423 Climbing Indianapolis Center
Thu 07:55:30 PM 39.9261 -83.7500 44° Northeast 169 194 5,800 356 Climbing Indianapolis Center
Thu 07:56:23 PM 39.9508 -83.7200 43° Northeast 168 193 6,100 474 Climbing Indianapolis Center
Thu 07:57:24 PM 39.9903 -83.6708 44° Northeast 167 192 6,700 488 Climbing Indianapolis Center
Thu 07:58:26 PM 40.0239 -83.6286 44° Northeast 166 191 7,100 195 Climbing Indianapolis Center
Thu 07:59:27 PM 40.0597 -83.5817 45° Northeast 173 199 7,100  Level Indianapolis Center
Thu 08:00:29 PM 40.0994 -83.5342 42° Northeast 183 211 7,100  Level Indianapolis Center
Thu 08:01:30 PM 40.1367 -83.4858 45° Northeast 186 214 7,100  Level Indianapolis Center
Thu 08:02:29 PM 40.1728 -83.4400 44° Northeast 187 215 7,100  Level Indianapolis Center
Thu 08:03:33 PM 40.2097 -83.3897 46° Northeast 185 213 7,100  Level Indianapolis Center
Thu 08:04:35 PM 40.2453 -83.3453 44° Northeast 177 204 7,100 -49 Level Indianapolis Center
Thu 08:05:36 PM 40.2803 -83.2983 46° Northeast 177 204 7,000  Descending Indianapolis Center
Thu 08:06:38 PM 40.3156 -83.2506 46° Northeast 180 207 7,100 49 Climbing Indianapolis Center
Thu 08:07:39 PM 40.3508 -83.2042 45° Northeast 178 205 7,100  Level Indianapolis Center
Thu 08:08:41 PM 40.3875 -83.1572 44° Northeast 182 209 7,100  Level Indianapolis Center
Thu 08:09:42 PM 40.4175 -83.1078 51° Northeast 173 199 7,100  Level Indianapolis Center
Thu 08:10:44 PM 40.4467 -83.0544 54° Northeast 176 203 7,100  Level Indianapolis Center
Thu 08:11:45 PM 40.4800 -82.9914 55° Northeast 178 205 7,100  Level Indianapolis Center
Thu 08:12:47 PM 40.5106 -82.9394 52° Northeast 178 205 7,100  Level Indianapolis Center
Thu 08:13:49 PM 40.5386 -82.8908 53° Northeast 173 199 7,100  Level Indianapolis Center
Thu 08:14:50 PM 40.5672 -82.8367 55° Northeast 177 204 7,100  Level Indianapolis Center
Thu 08:15:52 PM 40.5986 -82.7825 53° Northeast 183 211 7,100  Level Indianapolis Center
Thu 08:16:53 PM 40.6294 -82.7300 52° Northeast 181 208 7,100  Level Indianapolis Center
Thu 08:17:55 PM 40.6586 -82.6767 54° Northeast 179 206 7,100  Level Indianapolis Center
Thu 08:18:16 PM 40.6672 -82.6636 49° Northeast 177 204 7,100  Level Cleveland Center
Thu 08:18:53 PM 40.6886 -82.6286 51° Northeast 177 204 7,100  Level Cleveland Center
Thu 08:19:53 PM 40.7189 -82.5747 53° Northeast 178 205 7,100 -50 Level Cleveland Center
Thu 08:20:54 PM 40.7469 -82.5208 55° Northeast 179 206 7,000 -248 Descending Cleveland Center
Thu 08:21:54 PM 40.7814 -82.4614 53° Northeast 190 219 6,600 -496 Descending Cleveland Center
Thu 08:22:55 PM 40.8114 -82.4047 55° Northeast 191 220 6,000 -639 Descending Cleveland Center
Thu 08:23:56 PM 40.8456 -82.3453 53° Northeast 192 221 5,300 -496 Descending Cleveland Center
Thu 08:24:56 PM 40.8756 -82.2911 54° Northeast 192 221 5,000 -149 Descending Cleveland Center
Thu 08:25:57 PM 40.9078 -82.2397 50° Northeast 176 203 5,000  Level Cleveland Center
Thu 08:26:58 PM 40.9333 -82.1883 57° Northeast 174 200 5,000 50 Level Cleveland Center
Thu 08:27:58 PM 40.9614 -82.1394 53° Northeast 173 199 5,100 -50 Climbing Cleveland Center
Thu 08:28:59 PM 40.9911 -82.0822 55° Northeast 171 197 4,900 -295 Descending Cleveland Center
Thu 08:30:00 PM 41.0189 -82.0306 55° Northeast 185 213 4,500 -397 Descending Cleveland Center
Thu 08:31:00 PM 41.0531 -81.9708 53° Northeast 180 207 4,100 -545 Descending Cleveland Center
Thu 08:32:01 PM 41.0892 -81.9219 46° Northeast 195 224 3,400 -595 Descending Cleveland Center
Thu 08:33:01 PM 41.1253 -81.8675 49° Northeast 192 221 2,900 -198 Descending Cleveland Center
Thu 08:34:02 PM 41.1569 -81.8214 48° Northeast 166 191 3,000 50 Climbing Cleveland Center
Thu 08:35:02 PM 41.1886 -81.7750 48° Northeast 167 192 3,000  Level Cleveland Center
Thu 08:36:03 PM 41.2267 -81.7400 35° Northeast 175 201 3,000  Level Cleveland Center
Thu 08:37:04 PM 41.2686 -81.6992 36° Northeast 176 203 3,000  Level Cleveland Center
Thu 08:38:04 PM 41.3086 -81.6667 31° Northeast 183 211 3,000  Level Cleveland Center
Thu 08:39:05 PM 41.3547 -81.6342 28° Northeast 171 197 3,000  Level Cleveland Center
Thu 08:40:06 PM 41.3989 -81.6072 25° Northeast 182 209 3,000  Level Cleveland Center
Thu 08:41:06 PM 41.4508 -81.6081 359° North 191 220 3,000 -595 Level Cleveland Center
Thu 08:42:07 PM 41.4964 -81.6506 325° Northwest 217 250 1,800 -942 Descending Cleveland Center
Thu 08:43:07 PM 41.5186 -81.7092 297° West 159 183 1,100 -700 Descending Cleveland Center
Thu 08:45:00 PM 41.5175 -81.6833 90° East  Level Estimated

Login

Don't have an account? Register now (free) for customized features, flight alerts, and more!